TELKOM 4 (MERAH PUTIH)

Last updated on Thu Nov 21 2024 00:02:44 GMT+0000 (Coordinated Universal Time)

1 43587U 18064A 24325.55764802 -.00000343 00000+0 00000+0 0 9998 2 43587 0.0154 335.8530 0001790 288.4239 104.5458 1.00270721 23124
UTC large
Height (km)
Speed (km/s)
/
Latitude / Longitude
Inclination (degrees)
Orbital Period (minutes)
Azimuth
Elevation
Range (km)
Doppler Factor

Next 0 passes for location: London (51.5072 / 0.1276)

Sorry there are no passes over London.